This is the latest recevied weather packets stored in our database for station/object KB2FWP. If no packets are shown the sender has not sent any weather packets the latest 10 day(s).
| Time | Temp. | Humidity | Pressure | Rain* | Wind** | Luminosity | Snow |
|---|---|---|---|---|---|---|---|
| 1777888822 | 9.44° C | 77% | 1015.6 hPa | 0 mm | - | - | - |
| 1777887935 | 9.44° C | 75% | 1015.5 hPa | 0 mm | - | - | - |
| 1777887016 | 10° C | 73% | 1015.2 hPa | 0 mm | - | - | - |
| 1777886115 | 10.56° C | 66% | 1015.2 hPa | 0 mm | - | - | - |
| 1777885214 | 10° C | 69% | 1015.2 hPa | 0 mm | - | - | - |
| 1777884311 | 10° C | 73% | 1015.1 hPa | 0 mm | - | - | - |
| 1777883408 | 10° C | 72% | 1015 hPa | 0 mm | - | - | - |
| 1777882508 | 10° C | 69% | 1015 hPa | 0 mm | - | - | - |
| 1777881608 | 10° C | 72% | 1014.9 hPa | 0 mm | - | - | - |
| 1777880707 | 10° C | 73% | 1014.8 hPa | 0 mm | - | - | - |
| 1777879808 | 10.56° C | 70% | 1014.7 hPa | 0 mm | - | - | - |
| 1777878902 | 10.56° C | 69% | 1014.6 hPa | 0 mm | - | - | - |
| 1777878001 | 10.56° C | 65% | 1014.4 hPa | 0 mm | - | - | - |
| 1777877161 | 11.11° C | 62% | 1014.4 hPa | 0 mm | - | - | - |
| 1777876260 | 11.11° C | 62% | 1014.4 hPa | 0 mm | - | - | - |
| 1777875358 | 11.11° C | 65% | 1014.5 hPa | 0 mm | - | - | - |
| 1777874461 | 10.56° C | 67% | 1014.5 hPa | 0 mm | - | - | - |
| 1777873556 | 10° C | 73% | 1014.4 hPa | 0 mm | - | - | - |
| 1777872654 | 10° C | 76% | 1014.2 hPa | 0 mm | - | - | - |
| 1777871751 | 10° C | 74% | 1014.2 hPa | 0 mm | - | - | - |
| 1777870850 | 10.56° C | 73% | 1014.2 hPa | 0 mm | - | - | - |
| 1777869956 | 10° C | 73% | 1014.1 hPa | 0 mm | - | - | - |
| 1777869050 | 10.56° C | 72% | 1014.1 hPa | 0 mm | - | - | - |
| 1777868143 | 10.56° C | 69% | 1014.1 hPa | 0 mm | - | - | - |
| 1777867254 | 11.11° C | 66% | 1014 hPa | 0 mm | - | - | - |
* Rain latest hour (hover to see other rain measurements)
** Current wind speed in m/s (hover to see current wind gust speed)